EW2817 Weather Reports


time (UTC)temp
C
wind
direction
speed
KPH
gust
KPH
rain 1hr
cm
rain 24hr
cm
rain mn
cm
humidity
%
barometer
mb
20260504080813 10 0 0.0 0.0 0.00 0.00 0.00 68 993.2
20260504045300 11 0 0.0 0.0 0.00 0.00 0.00 65 993.4
20260504043759 11 0 0.0 0.0 0.00 0.00 0.00 64 993.5
20260504042256 11 0 0.0 0.0 0.00 0.00 0.00 63 993.5
20260504040754 11 0 0.0 0.0 0.00 0.00 0.00 62 993.5
20260504035254 11 0 0.0 0.0 0.00 0.00 0.00 59 993.4
20260504033755 11 0 0.0 0.0 0.00 0.00 0.00 58 993.4
20260504032254 11 0 0.0 0.0 0.00 0.00 0.00 57 993.6
20260504025253 12 0 0.0 0.0 0.00 0.00 0.00 56 993.4
20260504023754 12 0 0.0 0.0 0.00 0.00 0.00 55 993.3
20260504022254 12 0 0.0 0.0 0.00 0.00 0.00 55 993.1
20260504020754 12 0 0.0 0.0 0.00 0.00 0.00 53 993.2
20260504015252 12 0 0.0 0.0 0.00 0.00 0.00 55 993.2
20260504013752 12 0 0.0 0.0 0.00 0.00 0.00 54 993.1
20260504012252 12 0 0.0 0.0 0.00 0.00 0.00 53 993.0
20260504010750 13 0 0.0 0.0 0.00 0.00 0.00 54 992.8
20260504005247 13 0 0.0 0.0 0.00 0.00 0.00 53 992.6
20260504003737 13 0 0.0 0.0 0.00 0.00 0.00 50 992.5
20260504002237 14 0 0.0 0.0 0.00 0.00 0.00 52 992.5
20260504000738 15 0 0.0 0.0 0.00 0.00 0.00 51 992.4
20260503235231 15 0 0.0 0.0 0.00 0.00 0.00 48 992.3
20260503233732 16 0 0.0 0.0 0.00 0.00 0.00 46 992.1
20260503232231 16 0 0.0 0.0 0.00 0.00 0.00 45 992.1
20260503230731 16 0 0.0 0.0 0.00 0.00 0.00 44 992.1
20260503225229 17 0 0.0 0.0 0.00 0.00 0.00 42 992.2
20260503222227 17 0 0.0 0.0 0.00 0.00 0.00 40 992.5
20260503220727 17 0 0.0 0.0 0.00 0.00 0.00 35 992.5
20260503215227 17 0 0.0 0.0 0.00 0.00 0.00 37 992.5
20260503213725 17 0 0.0 0.0 0.00 0.00 0.00 35 992.5
20260503212225 17 0 0.0 0.0 0.00 0.00 0.00 38 992.6
20260503210722 17 0 0.0 0.0 0.00 0.00 0.00 36 992.7
20260503205219 17 0 0.0 0.0 0.00 0.00 0.00 38 992.8
20260503202217 18 0 0.0 0.0 0.00 0.00 0.00 38 993.0
20260503200717 17 0 0.0 0.0 0.00 0.00 0.00 36 993.1
20260503195213 18 0 0.0 0.0 0.00 0.00 0.00 36 993.3
20260503192208 18 0 0.0 0.0 0.00 0.00 0.00 37 993.6
20260503190708 18 0 0.0 0.0 0.00 0.00 0.00 36 993.8
20260503185207 18 0 0.0 0.0 0.00 0.00 0.00 34 994.0
20260503183704 18 0 0.0 0.0 0.00 0.00 0.00 37 994.1
20260503182205 18 0 0.0 0.0 0.00 0.00 0.00 35 994.3
20260503180702 18 0 0.0 0.0 0.00 0.00 0.00 33 994.5
20260503175203 18 0 0.0 0.0 0.00 0.00 0.00 35 994.4
20260503173701 18 0 0.0 0.0 0.00 0.00 0.00 35 994.7
20260503172156 18 0 0.0 0.0 0.00 0.00 0.00 36 994.8
20260503170654 17 0 0.0 0.0 0.00 0.00 0.00 39 995.1